This is the latest recevied weather packets stored in our database for station/object N4DWK. If no packets are shown the sender has not sent any weather packets the latest 10 day(s).
| Time | Temp. | Humidity | Pressure | Rain* | Wind** | Luminosity | Snow |
|---|---|---|---|---|---|---|---|
| 1787854207 | 31.11° C | 70% | 1014.7 hPa | 0 mm | - | 346 W/m² | - |
| 1787853905 | 31.11° C | 67% | 1014.8 hPa | 0 mm | - | 376 W/m² | - |
| 1787853606 | 30.56° C | 71% | 1014.8 hPa | 0 mm | - | 308 W/m² | - |
| 1787853305 | 30.56° C | 69% | 1014.9 hPa | 0 mm | - | 214 W/m² | - |
| 1787853006 | 31.11° C | 67% | 1015 hPa | 0 mm | - | 248 W/m² | - |
| 1787852705 | 31.11° C | 67% | 1015.1 hPa | 0 mm | - | 274 W/m² | - |
| 1787852406 | 31.11° C | 69% | 1015.2 hPa | 0 mm | - | 334 W/m² | - |
| 1787852105 | 30.56° C | 68% | 1015.3 hPa | 0 mm | - | 276 W/m² | - |
| 1787851807 | 30.56° C | 68% | 1015.3 hPa | 0 mm | - | 336 W/m² | - |
| 1787851505 | 30.56° C | 67% | 1015.3 hPa | 0 mm | - | 369 W/m² | - |
| 1787851206 | 30.56° C | 66% | 1015.3 hPa | 0 mm | - | 327 W/m² | - |
| 1787850906 | 30.56° C | 66% | 1015.4 hPa | 0 mm | - | 390 W/m² | - |
| 1787850606 | 30.56° C | 66% | 1015.3 hPa | 0 mm | - | 346 W/m² | - |
| 1787850305 | 30.56° C | 66% | 1015.4 hPa | 0 mm | - | 316 W/m² | - |
| 1787850006 | 30° C | 68% | 1015.4 hPa | 0 mm | - | 343 W/m² | - |
| 1787849705 | 30.56° C | 69% | 1015.3 hPa | 0 mm | - | 336 W/m² | - |
| 1787849405 | 30° C | 70% | 1015.4 hPa | 0 mm | - | 290 W/m² | - |
| 1787849105 | 30° C | 72% | 1015.4 hPa | 0 mm | - | 295 W/m² | - |
| 1787848805 | 29.44° C | 72% | 1015.5 hPa | 0 mm | - | 174 W/m² | - |
| 1787848505 | 29.44° C | 71% | 1015.4 hPa | 0 mm | - | 165 W/m² | - |
| 1787848206 | 29.44° C | 72% | 1015.4 hPa | 0 mm | - | 160 W/m² | - |
| 1787847905 | 29.44° C | 72% | 1015.4 hPa | 0 mm | - | 156 W/m² | - |
| 1787847605 | 29.44° C | 72% | 1015.4 hPa | 0 mm | - | 137 W/m² | - |
| 1787847312 | 29.44° C | 70% | 1015.4 hPa | 0 mm | - | 146 W/m² | - |
| 1787847013 | 29.44° C | 73% | 1015.5 hPa | 0 mm | - | 264 W/m² | - |
* Rain latest hour (hover to see other rain measurements)
** Current wind speed in m/s (hover to see current wind gust speed)